NOAA 16 DEB, 41198

Orbit data source: Space-Track

NOAA 16 DEB, 41198 is space debris in SSO originally from a launch on Thu, 21 Sep 2000 UTC launched from the Air Force Western Test Range (AFWTR). Debris objects in space refer to the collection of defunct objects orbiting the Earth. Examples of debris include non-operational satellites, rocket bodies, and fragments generated from explosions, collisions, or faulty payload assembly.

Loading next visibility...
Identifier
41198, 2000-055DB
Orbit
SSO
Country
Flag of USUS
Related business
Manufacturer
Unknown
Mission
Spacecraft
Bus & Motor
Unknown
Mass
Unknown
Launch date (UTC)
2000-09-21 (26 years ago)
Launch vehicle
Unknown
Launch site
Air Force Western Test Range (AFWTR)
Object type
Payload
Rocket body
Debris
Shape & HBR
Unknown shape, 0.1 m
Radar Cross Section
Medium (>0.1 m² and <1 m²)

Expand to show TLE details & history
Last TLE update: 3 days ago

TLE from 3 days ago
0 NOAA 16 DEB
1 41198U 00055DB  26170.54458855  .00009114  00000-0  25462-2 0  9999
2 41198  98.9113 286.4216 0023808 147.9079 212.3567 14.46258681542139
Epoch: 2026-06-19T13:04Z
TLE epoch observation values (Epoch: 2026-06-19T13:04:12.450Z)
Latitude
0.00003°
Longitude
-177.40232°
Altitude
755.164 km
Speed
7.469 km/s
True Right ascension
19h 05m 41s
True Declination
0° 00' 00"
Sunlit
Object was in full shadow at epoch
Visualization orbit readout
Latitude
Unknown
Longitude
Unknown
Altitude
Unknown
Speed
Unknown
Apparent Right ascension
Unknown
Apparent Declination
Unknown
Sunlit
N/A
Visualization observer readout
Local Sidereal Time
21:36:41
Azimuth
Unknown
Elevation
Unknown
Doppler factor
Unknown
Orbital elements
Apogee altitude
751.963 km
Perigee altitude
718.093 km
Semi-major axis
7,113.165 km
Eccentricity
0.00238
Inclination
98.9113°
RAAN
286.4216°
Arg. of periapsis
147.9079°
True anomaly
212.21106°
Mean anomaly
212.3567°
Eccentric anomaly
212.28384°
Mean motion
3.61784 °/min
Orbital period
99.51 mins
BSTAR
0.0025462
Loading maneuver chart data...
Computing Atmospheric mass density...
Loading historical data...
Loading historical data...
Loading historical data...
Loading historical data...
Loading historical data...
Loading historical data...
Loading historical data...

Documentation

Showing up to 5 results
|